Weather History for Wittering, United Kingdom

Change the Weather History Date:

Thursday, January 31, 2013

  Actual Average Record
Temperature  
Mean Temperature 45 °F -  
Max Temperature 48 °F 44 °F 55 °F (2000)
Min Temperature 42 °F 34 °F 24 °F (2011)
Degree Days  
Heating Degree Days 20    
Moisture  
Dew Point 38 °F    
Average Humidity 72    
Maximum Humidity 93    
Minimum Humidity 50    
Precipitation  
Precipitation 0.02 in - - ()
Sea Level Pressure  
Sea Level Pressure 29.75 in    
Wind  
Wind Speed 19 mph ()    
Max Wind Speed 32 mph    
Max Gust Speed 45 mph    
Visibility 7.6 miles    
Events Rain    
Averages and records for this station are not official NWS values.
T = Trace of Precipitation, MM = Missing Value Source: Averaged Metar Reports

Daily Weather History Graph

Daily Weather History Graph

Search for Another Location

Airport:

Trip Planner

Search our weather history database for the weather conditions in past years. The results will help you decide how hot, cold, wet, or windy it might be!

Date:

Astronomy

Jan. 31, 2013 Rise Set
Actual Time 7:45 AM GMT 4:46 PM GMT
Civil Twilight 7:07 AM GMT 5:23 PM GMT
Nautical Twilight 6:26 AM GMT 6:04 PM GMT
Astronomical Twilight 5:46 AM GMT 6:44 PM GMT
Moon 10:19 PM GMT (1/31) 8:54 AM GMT (1/31)
Length of Visible Light 10h 15m
Length of Day
9h 00m
Waning Gibbous, 81% of the Moon is Illuminated
Jan 31
Waning Gibbous
Feb 3
Last Quarter
Feb 10
New
Feb 17
First Quarter
Feb 25
Full

Hourly Weather History & Observations

Time (GMT) Temp. Windchill Dew Point Humidity Pressure Visibility Wind Dir Wind Speed Gust Speed Precip Events Conditions
12:50 AM 42.8 °F 36.2 °F 35.6 °F 76% 29.89 in 6.2 mi WSW 12.7 mph - N/A   Scattered Clouds
1:50 AM 44.6 °F 35.9 °F 37.4 °F 76% 29.86 in 6.2 mi SW 23.0 mph - N/A   Mostly Cloudy
2:50 AM 44 °F - 38 °F 73% 29.83 in 17 mi SW 21.9 mph - -   Scattered Clouds
2:50 AM 44.6 °F 36.1 °F 39.2 °F 81% 29.80 in 6.2 mi SW 21.9 mph - N/A   Mostly Cloudy
3:50 AM 44.6 °F 36.1 °F 39.2 °F 81% 29.77 in 6.2 mi SSW 21.9 mph - N/A   Mostly Cloudy
4:50 AM 44.6 °F 35.9 °F 41.0 °F 87% 29.71 in 6.2 mi SSW 23.0 mph - N/A   Mostly Cloudy
5:50 AM 45 °F - 43 °F 88% 29.74 in 4 mi SW 18.4 mph - - Rain Rain
5:50 AM 44.6 °F 36.9 °F 42.8 °F 93% 29.71 in 3.7 mi SW 18.4 mph - N/A Rain Rain
6:50 AM 44.6 °F 36.4 °F 39.2 °F 81% 29.68 in 6.2 mi SW 20.7 mph - N/A   Mostly Cloudy
7:50 AM 44.6 °F 36.9 °F 39.2 °F 81% 29.65 in 6.2 mi SW 18.4 mph - N/A   Partly Cloudy
8:50 AM 47 °F - 40 °F 69% 29.69 in 18 mi WSW 23.0 mph - -   Partly Cloudy
8:50 AM 46.4 °F 38.3 °F 39.2 °F 76% 29.68 in 6.2 mi WSW 23.0 mph - N/A   Scattered Clouds
9:50 AM 46.4 °F 38.5 °F 39.2 °F 76% 29.68 in 6.2 mi WSW 21.9 mph - N/A   Partly Cloudy
10:50 AM 46.4 °F 39.0 °F 39.2 °F 76% 29.71 in 6.2 mi WSW 19.6 mph - N/A   Partly Cloudy
11:50 AM 48 °F - 37 °F 56% 29.74 in 31 mi West 31.1 mph - -   Scattered Clouds
11:50 AM 48.2 °F - 37.4 °F 66% 29.71 in 6.2 mi West 31.1 mph - N/A   Partly Cloudy
12:50 PM 48.2 °F - 35.6 °F 62% 29.74 in 6.2 mi West 28.8 mph - N/A   Mostly Cloudy
1:50 PM 48.2 °F - 35.6 °F 62% 29.74 in 6.2 mi West 32.2 mph 44.9 mph N/A   Mostly Cloudy
2:50 PM 48 °F - 35 °F 50% 29.77 in 25 mi West 26.5 mph - -   Scattered Clouds
2:50 PM 48.2 °F - 35.6 °F 62% 29.74 in 6.2 mi West 26.5 mph - N/A   Partly Cloudy
3:50 PM 46.4 °F 38.5 °F 35.6 °F 66% 29.77 in 6.2 mi WSW 21.9 mph - N/A   Scattered Clouds
4:50 PM 46.4 °F 39.5 °F 35.6 °F 66% 29.77 in 6.2 mi WSW 17.3 mph - N/A   Partly Cloudy
5:50 PM 46 °F - 35 °F 56% 29.80 in 25 mi WSW 20.7 mph - -  
5:50 PM 46.4 °F 38.7 °F 35.6 °F 66% 29.77 in 6.2 mi WSW 20.7 mph - N/A   Unknown
6:50 PM 44.6 °F 37.4 °F 35.6 °F 71% 29.80 in 6.2 mi WSW 16.1 mph - N/A   Unknown
7:50 PM 44.6 °F 37.4 °F 37.4 °F 76% 29.80 in 6.2 mi WSW 16.1 mph 27.6 mph N/A   Unknown
8:50 PM 45 °F - 37 °F 66% 29.80 in 17 mi WSW 19.6 mph - -  
8:50 PM 44.6 °F 36.6 °F 37.4 °F 76% 29.77 in 6.2 mi WSW 19.6 mph - N/A   Unknown
9:50 PM 44.6 °F 35.9 °F 37.4 °F 76% 29.77 in 6.2 mi WSW 23.0 mph - N/A   Unknown
10:50 PM 44.6 °F 36.4 °F 37.4 °F 76% 29.74 in 6.2 mi WSW 20.7 mph - N/A   Unknown
11:50 PM 44 °F - 38 °F 71% 29.76 in 17 mi WSW 18.4 mph - -   Partly Cloudy
11:50 PM 44.6 °F 36.9 °F 37.4 °F 76% 29.74 in 6.2 mi WSW 18.4 mph - N/A   Scattered Clouds